X09 Deep Random Survey, Rio Hurtado.  Observers A. Schnabel, D. Ruhela.
    Measurer S. Deen.  0.43-m reflector + CMOS.
Z80 Northolt Branch Observatory.  Observer G. Wells.  Measurers G. Wells, D.
    Bamberger.  0.25-m f/8.0 Ritchey-Chretien + CCD.
Orbital elements:
2023 VW1                                                 Earth MOID = 0.0050 AU
Epoch 2023 Sept. 13.0 TT = JDT 2460200.5                Veres                   
M  96.10899              (2000.0)            P               Q                  
n   1.66405139     Peri.  178.79698     -0.76997945     +0.57054197             
a   0.7052746      Node    40.72664     -0.58901254     -0.46340089             
e   0.4144978      Incl.   25.96729     -0.24534847     -0.67804238             
P   0.59           H   24.69          G   0.15           U   7                  
Residuals in seconds of arc
231105 703  0.1-  0.3+    231105 M49  0.1-  0.0     231105 L04  0.1+  0.2+
231105 703  0.1+  0.5-    231105 M28  0.1+  0.2+    231105 Z80  0.0   0.2+
231105 703  0.2-  1.0-    231105 C40  0.4+  0.7+    231105 595  0.1+  0.2-
231105 703  0.3-  0.6+    231105 C40 (0.0   1.9+)   231105 203  0.2+  0.1-
231105 X09  0.0   0.9-    231105 M49  0.2+  0.1-    231105 595  0.1-  0.0
231105 X09  1.8+  0.4-    231105 L01  0.5-  0.3-    231105 204  0.0   0.1+
231105 I52  0.1-  0.1-    231105 L01  0.6-  0.1-    231105 203  0.3+  0.4-
231105 I52  0.0   0.1-    231105 B42  0.1+  0.1+    231105 595  0.3+  0.1-
231105 I52  0.0   0.0     231105 L01  0.5-  0.2-    231105 204  0.1-  0.1-
231105 I52  0.0   0.1-    231105 B42  0.3+  0.2-    231105 204  0.1-  0.0
231105 900  0.1+  0.1-    231105 B42  0.4-  0.3-    231105 204  0.1-  0.1-
231105 900  0.5+  0.1-    231105 C77  0.7+  0.2+    231105 204  0.0   0.1-
231105 C40  0.9-  1.3+    231105 L01  0.4-  0.1+    231105 203  0.3+  0.0
231105 C40  0.3-  0.6-    231105 C77  0.3+  0.0     231106 W46  0.2-  0.4-
231105 C40  0.2-  0.8+    231105 C77  0.1-  0.1+    231106 W46  0.0   0.6-
231105 M63  0.2-  0.6-    231105 L01  0.5-  0.3-    231106 W46  0.1-  0.4-
231105 M63  0.1-  0.7-    231105 K74  0.2-  0.2-    231106 H21  0.0   0.1-
231105 M63  0.5-  0.7+    231105 K74  0.3-  0.2-    231106 H21  0.0   0.1+
231105 M63  0.2-  0.6-    231105 M38  0.2-  0.0     231106 H21  0.0   0.0
231105 587  0.3+  0.4+    231105 L01  0.4-  0.3-    231106 H21  0.1+  0.1-
231105 587  0.4+  0.0     231105 K74  0.3-  0.1-    231106 H21  0.1+  0.1+
231105 587  0.2+  0.0     231105 K74  0.1-  0.3-    231106 H21  0.1-  0.1-
231105 M63  0.4+  0.5-    231105 K74  0.5+  0.1+    231106 734  0.4-  0.3-
231105 M49  0.1-  0.0     231105 M38  0.2-  0.3-    231106 734  0.4-  0.2-
231105 M28  2.2-  1.3+    231105 L04  0.1-  0.0     231106 734  0.1-  0.2-
231105 C40  0.2-  0.5+    231105 Z80  0.3-  0.2+
231105 M28  0.4-  0.6+    231105 L04  0.5+  0.2+
Ephemeris:
2023 VW1                 a,e,i = 0.71, 0.41, 26                  q = 0.4129
Date    TT    R. A. (2000) Decl.     Delta      r    Elong.  Phase     V
2023 10 07    08 00 28.0 -27 47 46   0.2119  0.9544    71.7    96.2    24.7
...
2023 10 22    07 49 25.3 -28 12 47   0.09982 0.9896    83.8    90.5    22.9
...
2023 10 30    07 21 46.3 -29 14 16   0.03721 0.9969    94.6    83.3    20.5
...
2023 11 05    22 05 28.6 +17 44 42   0.01274 0.9972   115.0    64.3    17.5
2023 11 06    21 21 18.1 +22 09 33   0.02006 0.9967   104.7    74.2    18.8
2023 11 07    21 00 18.2 +23 55 36   0.02774 0.9962    99.6    78.8    19.7
...
2023 11 13    20 25 39.8 +26 23 21   0.07480 0.9904    88.3    87.4    22.1
...
2023 11 21    20 16 09.8 +26 58 11   0.1366  0.9758    80.9    91.2    23.5
...
2023 12 06    20 07 51.6 +26 54 05   0.2447  0.9269    69.1    96.6    24.9
M. P. C. Staff               (C) Copyright 2023 MPC           M.P.E.C. 2023-V69
    
    
More information about the Iaude
mailing list